Location: Cabobito
(9.9667°N, 67.8000°W)
Time: 22:59:56
(UTC+00:00)

Meteor PRIRODA - Pass Details

Date: 18 April 2024
Orbit: 441 x 457 km, 97.5° (Epoch: 24 May)

Event Time Altitude Azimuth Distance (km) Brightness Sun altitude
Exits shadow 23:43:41 - 171° (S) 1,698 6.1 -15.7°
Reaches altitude 10° 23:43:58 10° 171° (S) 1,576 5.9 -15.7°
Maximum altitude 23:47:21 83° 259° (WSW) 460 3.4 -16.5°
Drops below altitude 10° 23:50:45 10° 347° (NNW) 1,588 6.5 -17.3°
Sets 23:52:48 0° 348° (NNW) 2,465 7.5 -17.8°
